Location: ???????
(55.4362°N, 38.1183°E)
Time: 18:27:27
(UTC+00:00)

MTI - Pass Details

Date: 17 June 2021
Orbit: 377 x 387 km, 97.5° (Epoch: 29 July)

Event Time Altitude Azimuth Distance (km) Brightness Sun altitude
Rises 21:32:27 0° 12° (NNE) 2,311 9.4 -11.2°
Reaches altitude 10° 21:34:27 10° 10° (N) 1,449 8.0 -11.2°
Maximum altitude 21:37:31 68° 287° (WNW) 431 3.8 -11.1°
Enters shadow 21:39:47 17° 206° (SSW) 1,105 5.3 -11.1°
